247  
ASUS41 KALY 231410  
RWRALY  
 
NEW YORK STATE HOURLY WEATHER ROUNDUP  
NATIONAL WEATHER SERVICE ALBANY NY  
1000 AM EDT WED MAY 23 2018  
 
NOTE: "FAIR" INDICATES FEW OR NO CLOUDS BELOW 12,000 FEET WITH NO  
SIGNIFICANT WEATHER AND/OR NO S TO VISIBILITY
.  
 
NYZ032-033-038>043-046>054-057>066-NYZ062>081-082-084-231500-  
EAST  
 
 
CITY SKY/WX TMP DP RH WIND PRES REMARKS
 
ALBANY PTSUNNY 68 57 68 N7 29.97R  
GLENS FALLS FAIR 65 56 72 CALM 29.94F  
POUGHKEEPSIE PTSUNNY 65 57 75 NE10 29.94R  
NEWBURGH CLOUDY 64 63 94 E6 29.96R  
MONTGOMERY CLOUDY 67 62 84 NE8 29.94R  
WHITE PLAINS PTSUNNY 64 60 87 NW5 29.93R  
ISLIP CLOUDY 61 59 93 SW3 29.93R FOG  
NEW YORK CITY CLOUDY 68 60 75 NW7 29.92S  
CENTRAL PARK CLOUDY 67 63 87 VRB3 29.95F  

 
 
NYZ005>009-017-018-044>046-055-056-231500-  
CENTRAL  
 
 
CITY SKY/WX TMP DP RH WIND PRES REMARKS
 
FULTON CLOUDY 55 54 96 W5 30.04S FOG  
SYRACUSE PTSUNNY 62 57 83 W10 30.03S  
ROME CLOUDY 61 57 88 W10 30.03S  
ELMIRA PTSUNNY 67 56 67 VRB5 30.05S  
BINGHAMTON CLOUDY 58 52 80 N7 30.04R  

 
 
NYZ026>034-041>043-087-231500-  
NORTH  
 
 
CITY SKY/WX TMP DP RH WIND PRES REMARKS
 
WATERTOWN PTSUNNY 58 56 93 SW13 30.01F FOG  
FORT DRUM NOT AVBL  
OGDENSBURG FAIR 64 57 79 SW6 29.97S  
MASSENA FAIR 65 55 70 W13 29.96R  
SARANAC LAKE FAIR 59 54 83 SW8 29.96S  
PLATTSBURGH FAIR 64 56 75 MISG 29.89F  

 
 
NYZ001>004-010>016-019>021-085-231500-  
WEST  
 
 
CITY SKY/WX TMP DP RH WIND PRES REMARKS
 
NIAGARA FALLS FAIR 66 54 65 SW7 30.07F  
BUFFALO FAIR 59 55 87 SW12 30.09S  
DUNKIRK CLOUDY 59 56 89 SW7 30.12R  
JAMESTOWN PTSUNNY 57 54 89 N5 30.14R  
WELLSVILLE PTSUNNY 63 56 78 N9 30.11R  
ROCHESTER FAIR 66 56 70 W6 30.06S  
PENN YAN FAIR 66 54 65 NW8 30.06S  

 
 
KEY  
WCI = WIND CHILL INDEX  
VSB = VISIBILITY  
HX = HEAT INDEX  

 
 
 
CLICK HERE TO GO TO PREVIOUS BULLETINS.

The Nexlab NY Page
The Nexlab VT Page
The Nexlab MA Page
The Nexlab CT Page Main Text Page